This is the latest recevied weather packets stored in our database for station/object W0JRT-6. If no packets are shown the sender has not sent any weather packets the latest 10 day(s).
| Time | Temp. | Humidity | Pressure | Rain* | Wind** | Luminosity | Snow |
|---|---|---|---|---|---|---|---|
| 1777402204 | 13.89° C | 70% | 1010.3 hPa | 0 mm | - | - | - |
| 1777401754 | 13.89° C | 69% | 1011 hPa | 0 mm | - | - | - |
| 1777401600 | 13.89° C | 69% | 1011 hPa | 0 mm | - | - | - |
| 1777401007 | 13.33° C | 71% | 1011.3 hPa | 0 mm | - | - | - |
| 1777400398 | 13.33° C | 73% | 1011.5 hPa | 0 mm | - | - | - |
| 1777399805 | 12.78° C | 73% | 1012.4 hPa | 0 mm | - | - | - |
| 1777399212 | 12.78° C | 76% | 1012.5 hPa | 0 mm | - | - | - |
| 1777398610 | 12.22° C | 74% | 1012.8 hPa | 0 mm | - | - | - |
| 1777398006 | 12.22° C | 75% | 1012.6 hPa | 0 mm | - | - | - |
| 1777397604 | 12.22° C | 76% | 1013.1 hPa | 0 mm | - | - | - |
| 1777397408 | 12.22° C | 76% | 1013.1 hPa | 0 mm | - | - | - |
| 1777396805 | 11.67° C | 75% | 1012.9 hPa | 0 mm | - | - | - |
| 1777396206 | 11.67° C | 75% | 1013.1 hPa | 0 mm | - | - | - |
| 1777395599 | 11.67° C | 76% | 1013.1 hPa | 0 mm | - | - | - |
| 1777395004 | 12.22° C | 75% | 1013 hPa | 0 mm | - | - | - |
| 1777394398 | 12.22° C | 75% | 1013.2 hPa | 0 mm | - | - | - |
| 1777393803 | 11.67° C | 77% | 1014.1 hPa | 0 mm | - | - | - |
| 1777393207 | 11.67° C | 77% | 1014.4 hPa | 0 mm | - | - | - |
| 1777391404 | 11.11° C | 78% | 1014.7 hPa | 0 mm | - | - | - |
| 1777390811 | 10.56° C | 80% | 1014.9 hPa | 0 mm | - | - | - |
| 1777389599 | 10.56° C | 81% | 1014.9 hPa | 0 mm | - | - | - |
| 1777389002 | 10.56° C | 81% | 1015.1 hPa | 0 mm | - | - | - |
| 1777388405 | 10° C | 81% | 1015.3 hPa | 0 mm | - | - | - |
| 1777387810 | 10° C | 82% | 1015.6 hPa | 0 mm | - | - | - |
| 1777387206 | 10° C | 82% | 1015.7 hPa | 0 mm | - | - | - |
* Rain since midnight (hover to see other rain measurements)
** Current wind speed in m/s (hover to see current wind gust speed)